| time (UTC) | temp F | wind direction | speed MPH | gust MPH | rain 1hr in | rain 24hr in | rain mn in | humidity % | barometer mb |
| 20260504213054 | 71 | 206 | 1.0 | 4.0 | 0.00 | 0.00 | 0.00 | 35 | 1006.2 |
| 20260504212054 | 71 | 207 | 2.0 | 8.0 | 0.00 | 0.00 | 0.00 | 35 | 1006.3 |
| 20260504211054 | 72 | 224 | 1.0 | 9.0 | 0.00 | 0.00 | 0.00 | 34 | 1006.1 |
| 20260504210054 | 72 | 200 | 1.0 | 7.0 | 0.00 | 0.00 | 0.00 | 33 | 1006.2 |
| 20260504204054 | 73 | 213 | 1.0 | 5.0 | 0.00 | 0.00 | 0.00 | 34 | 1006.1 |
| 20260504203054 | 73 | 230 | 2.0 | 7.0 | 0.00 | 0.00 | 0.00 | 33 | 1006.1 |
| 20260504202054 | 73 | 229 | 3.0 | 7.0 | 0.00 | 0.00 | 0.00 | 33 | 1006.2 |
| 20260504201054 | 73 | 183 | 3.0 | 9.0 | 0.00 | 0.00 | 0.00 | 32 | 1006.2 |
| 20260504200053 | 74 | 202 | 2.0 | 6.0 | 0.00 | 0.00 | 0.00 | 32 | 1006.1 |
| 20260504195053 | 74 | 204 | 1.0 | 10.0 | 0.00 | 0.00 | 0.00 | 33 | 1006.2 |
| 20260504193054 | 71 | 192 | 0.0 | 6.0 | 0.00 | 0.00 | 0.00 | 34 | 1006.1 |
| 20260504192053 | 71 | 215 | 3.0 | 5.0 | 0.00 | 0.00 | 0.00 | 34 | 1006.1 |
| 20260504191053 | 70 | 239 | 3.0 | 10.0 | 0.00 | 0.00 | 0.00 | 33 | 1006.2 |
| 20260504185053 | 73 | 186 | 0.0 | 6.0 | 0.00 | 0.00 | 0.00 | 32 | 1006.5 |
| 20260504183053 | 72 | 194 | 9.0 | 9.0 | 0.00 | 0.00 | 0.00 | 32 | 1006.6 |
| 20260504182053 | 72 | 217 | 2.0 | 9.0 | 0.00 | 0.00 | 0.00 | 32 | 1006.8 |
| 20260504181053 | 72 | 212 | 3.0 | 9.0 | 0.00 | 0.00 | 0.00 | 32 | 1006.9 |
| 20260504180054 | 72 | 202 | 4.0 | 10.0 | 0.00 | 0.00 | 0.00 | 32 | 1006.8 |
| 20260504175053 | 72 | 128 | 2.0 | 9.0 | 0.00 | 0.00 | 0.00 | 32 | 1006.7 |
| 20260504174053 | 72 | 206 | 1.0 | 7.0 | 0.00 | 0.00 | 0.00 | 32 | 1007.0 |
| 20260504173053 | 72 | 220 | 2.0 | 7.0 | 0.00 | 0.00 | 0.00 | 32 | 1007.1 |
| 20260504171053 | 71 | 180 | 4.0 | 8.0 | 0.00 | 0.00 | 0.00 | 32 | 1007.3 |
| 20260504151053 | 66 | 239 | 2.0 | 5.0 | 0.00 | 0.00 | 0.00 | 39 | 1008.5 |
| 20260504141053 | 63 | 200 | 1.0 | 7.0 | 0.00 | 0.00 | 0.00 | 44 | 1008.9 |
| 20260504081052 | 42 | 269 | 0.0 | 0.0 | 0.00 | 0.00 | 0.00 | 70 | 1010.1 |
| 20260504045051 | 38 | 269 | 0.0 | 0.0 | 0.00 | 0.00 | 0.00 | 72 | 1010.0 |
| 20260504044051 | 38 | 269 | 0.0 | 0.0 | 0.00 | 0.00 | 0.00 | 72 | 1010.0 |
| 20260504043051 | 38 | 269 | 0.0 | 0.0 | 0.00 | 0.00 | 0.00 | 72 | 1010.0 |
| 20260504042051 | 38 | 269 | 0.0 | 0.0 | 0.00 | 0.00 | 0.00 | 73 | 1010.0 |
| 20260504041051 | 38 | 269 | 0.0 | 0.0 | 0.00 | 0.00 | 0.00 | 73 | 1009.9 |
| 20260504040051 | 38 | 269 | 0.0 | 0.0 | 0.00 | 0.00 | 0.00 | 72 | 1009.9 |
| 20260504035051 | 38 | 269 | 0.0 | 0.0 | 0.00 | 0.00 | 0.00 | 72 | 1009.8 |
| 20260504034051 | 38 | 268 | 0.0 | 0.0 | 0.00 | 0.00 | 0.00 | 72 | 1009.7 |
| 20260504033051 | 38 | 269 | 0.0 | 0.0 | 0.00 | 0.00 | 0.00 | 72 | 1009.7 |
| 20260504032051 | 38 | 269 | 0.0 | 0.0 | 0.00 | 0.00 | 0.00 | 72 | 1009.6 |
| 20260504031051 | 39 | 269 | 0.0 | 0.0 | 0.00 | 0.00 | 0.00 | 71 | 1009.6 |
| 20260504030051 | 39 | 269 | 0.0 | 0.0 | 0.00 | 0.00 | 0.00 | 71 | 1009.7 |
| 20260504025051 | 39 | 269 | 0.0 | 0.0 | 0.00 | 0.00 | 0.00 | 71 | 1009.6 |
| 20260504024051 | 39 | 269 | 0.0 | 0.0 | 0.00 | 0.00 | 0.00 | 70 | 1009.5 |
| 20260504023051 | 40 | 269 | 0.0 | 0.0 | 0.00 | 0.00 | 0.00 | 69 | 1009.5 |
| 20260504022051 | 40 | 268 | 0.0 | 0.0 | 0.00 | 0.00 | 0.00 | 69 | 1009.5 |
| 20260504021051 | 41 | 269 | 0.0 | 0.0 | 0.00 | 0.00 | 0.00 | 67 | 1009.4 |
| 20260504020051 | 41 | 269 | 0.0 | 0.0 | 0.00 | 0.00 | 0.00 | 65 | 1009.3 |
| 20260504015051 | 42 | 269 | 0.0 | 0.0 | 0.00 | 0.00 | 0.00 | 64 | 1009.4 |
| 20260504014051 | 42 | 269 | 0.0 | 0.0 | 0.00 | 0.00 | 0.00 | 64 | 1009.2 |
| 20260504013051 | 42 | 269 | 0.0 | 0.0 | 0.00 | 0.00 | 0.00 | 64 | 1009.2 |
| 20260504012051 | 42 | 269 | 0.0 | 0.0 | 0.00 | 0.00 | 0.00 | 62 | 1009.1 |
| 20260504010051 | 43 | 269 | 0.0 | 0.0 | 0.00 | 0.00 | 0.00 | 61 | 1009.0 |
| 20260504005050 | 44 | 269 | 0.0 | 0.0 | 0.00 | 0.00 | 0.00 | 59 | 1008.8 |
| 20260504004051 | 44 | 269 | 0.0 | 0.0 | 0.00 | 0.00 | 0.00 | 58 | 1008.7 |
| 20260504003050 | 45 | 269 | 0.0 | 0.0 | 0.00 | 0.01 | 0.00 | 57 | 1008.6 |
| 20260504002051 | 45 | 269 | 0.0 | 0.0 | 0.00 | 0.01 | 0.00 | 56 | 1008.4 |
| 20260504001050 | 46 | 269 | 0.0 | 0.0 | 0.00 | 0.01 | 0.00 | 55 | 1008.3 |
| 20260504000050 | 47 | 269 | 0.0 | 0.0 | 0.00 | 0.01 | 0.00 | 55 | 1008.3 |
| 20260503235050 | 48 | 269 | 0.0 | 0.0 | 0.00 | 0.01 | 0.00 | 53 | 1008.1 |
| 20260503234050 | 49 | 269 | 0.0 | 0.0 | 0.00 | 0.01 | 0.00 | 53 | 1008.0 |
| 20260503233050 | 49 | 269 | 0.0 | 3.0 | 0.00 | 0.01 | 0.00 | 50 | 1007.9 |
| 20260503232050 | 50 | 62 | 0.0 | 6.0 | 0.00 | 0.01 | 0.00 | 49 | 1007.7 |
| 20260503231051 | 50 | 286 | 0.0 | 4.0 | 0.00 | 0.01 | 0.00 | 48 | 1007.6 |
| 20260503230050 | 51 | 315 | 0.0 | 3.0 | 0.00 | 0.01 | 0.00 | 48 | 1007.6 |
| 20260503225050 | 51 | 312 | 0.0 | 6.0 | 0.00 | 0.01 | 0.00 | 47 | 1007.5 |
| 20260503224050 | 51 | 315 | 0.0 | 13.0 | 0.00 | 0.01 | 0.00 | 46 | 1007.3 |
| 20260503223050 | 51 | 325 | 1.0 | 6.0 | 0.00 | 0.01 | 0.00 | 47 | 1007.2 |
| 20260503221050 | 51 | 240 | 3.0 | 12.0 | 0.00 | 0.01 | 0.00 | 47 | 1007.0 |
| 20260503220050 | 51 | 277 | 0.0 | 9.0 | 0.00 | 0.01 | 0.00 | 46 | 1007.0 |
| 20260503215050 | 51 | 89 | 0.0 | 7.0 | 0.00 | 0.01 | 0.00 | 47 | 1006.8 |